Find Starlink 36313

NORAD ID: 68156 Int'l Des: 2026-049 Owner: SPXS Country: US Constellation: starlink operational
LEOCIRCULARRETROGRADE

实时位置

正在加载3D地球...

关于 Starlink 36313

正在加载描述...

即将过境

Passes for default location (London). Set your location on the main map for personalized predictions.

高度历史

Loading altitude history...

两行轨道根数

1 68156U 26049Q 26119.83335647 -.01850123 00000-0 -25370-1 0 9995
2 68156 97.2836 141.6548 0001568 94.7794 218.2026 15.60475557 5902
Epoch: Apr 29, 2026 • Age: 5 hours

当前状态

高度 398.4 km
速度 7.68 km/s
星下点 60.62°N, 97.01°E
发射日期 Mar 13, 2026
运行时间 0.1 years
类型 internet

技术详情

分类 Payload
质量 575.00 kg
干质量 530.00 kg
总质量 575.00 kg
长度 0.30 m
直径 4.10 m
跨度 29.00 m
形状 Box + pan
制造商 SPXS
平台类型 Starlink V2MO
阶段状态 In Orbit
所有者/国家 SPXS/US

Most Searched